DW4805 Weather Reports


time (UTC)temp
F
wind
direction
speed
knots
gust
knots
rain 1hr
in
rain 24hr
in
rain mn
in
humidity
%
barometer
mb
20260509223058 89 13 0.0 2.6 0.00 0.00 0.00 42 1008.1
20260509221554 88 160 0.9 3.5 0.00 0.00 0.00 43 1008.2
20260509220050 89 102 0.9 4.3 0.00 0.00 0.00 43 1008.2
20260509214552 87 94 1.7 5.2 0.00 0.00 0.00 45 1008.4
20260509213056 87 92 1.7 6.1 0.00 0.00 0.00 42 1008.5
20260509211603 88 70 3.5 6.1 0.00 0.00 0.00 48 1008.7
20260509210056 87 344 1.7 3.5 0.00 0.00 0.00 45 1008.9
20260509204557 87 96 1.7 6.1 0.00 0.01 0.00 45 1009.0
20260509203106 87 97 3.5 5.2 0.00 0.01 0.00 47 1009.1
20260509201606 87 100 2.6 6.1 0.00 0.01 0.00 47 1009.4
20260509200112 87 108 2.6 6.1 0.00 0.01 0.00 47 1009.6
20260509194605 88 105 1.7 5.2 0.00 0.01 0.00 43 1009.8
20260509193114 87 74 2.6 5.2 0.00 0.01 0.00 47 1009.9
20260509191553 87 261 1.7 5.2 0.00 0.01 0.00 41 1010.0
20260509190059 87 331 0.9 5.2 0.00 0.01 0.00 48 1010.1
20260509184607 88 330 0.9 2.6 0.00 0.01 0.00 49 1010.2
20260509183056 85 346 1.7 6.1 0.00 0.01 0.00 48 1010.3
20260509181555 87 122 1.7 3.5 0.00 0.01 0.00 47 1010.6
20260509180054 88 296 0.9 4.3 0.00 0.01 0.00 45 1010.8
20260509174602 88 294 0.9 3.5 0.00 0.01 0.00 44 1010.8
20260509173106 86 303 1.7 4.3 0.00 0.01 0.00 48 1011.0
20260509171615 84 219 0.9 7.0 0.00 0.01 0.00 51 1011.1
20260509170052 83 304 2.6 7.8 0.00 0.01 0.00 53 1011.1
20260509164552 84 275 1.7 5.2 0.00 0.01 0.00 51 1011.4
20260509163104 85 49 0.9 3.5 0.00 0.01 0.00 52 1011.4
20260509161555 82 281 2.6 6.1 0.00 0.01 0.00 59 1011.5
20260509160054 81 298 2.6 6.1 0.00 0.01 0.00 60 1011.5
20260509154553 80 302 3.5 6.1 0.00 0.01 0.00 59 1011.4
20260509153056 79 294 2.6 4.3 0.00 0.01 0.00 63 1011.3
20260509151604 78 285 2.6 7.8 0.00 0.01 0.00 62 1011.2
20260509150105 77 317 2.6 6.1 0.00 0.01 0.00 64 1011.1
20260509144707 77 260 1.7 8.7 0.00 0.01 0.00 67 1011.4
20260509143054 76 293 4.3 9.6 0.00 0.01 0.00 68 1011.2
20260509141554 75 311 4.3 9.6 0.00 0.01 0.00 74 1011.2
20260509140059 73 277 4.3 8.7 0.00 0.01 0.00 75 1011.4
20260509134559 73 290 1.7 7.0 0.00 0.01 0.00 75 1011.5
20260509133057 72 295 2.6 7.0 0.00 0.01 0.00 79 1011.5
20260509131555 70 251 1.7 4.3 0.00 0.01 0.00 80 1011.3
20260509130104 69 317 1.7 5.2 0.00 0.01 0.00 80 1011.2
20260509124611 69 308 0.9 2.6 0.00 0.01 0.00 80 1011.2
20260509123059 67 0 0.0 1.7 0.00 0.01 0.00 84 1011.2
20260509121554 65 298 0.0 1.7 0.00 0.01 0.00 85 1011.1
20260509120105 64 214 0.0 1.7 0.00 0.01 0.00 85 1011.0
20260509114603 65 197 0.0 1.7 0.00 0.01 0.00 83 1010.8
20260509113100 66 0 0.0 0.9 0.00 0.01 0.00 82 1010.5
20260509111556 67 0 0.0 5.2 0.00 0.01 0.00 78 1010.2
20260509110057 68 312 3.5 7.8 0.00 0.01 0.00 76 1010.1
20260509104602 68 315 3.5 10.4 0.00 0.01 0.00 74 1010.0
20260509103057 68 313 4.3 10.4 0.00 0.01 0.00 73 1010.0
20260509101559 70 290 0.9 5.2 0.00 0.01 0.00 74 1010.1
20260509100058 70 288 1.7 7.8 0.00 0.01 0.00 84 1010.0
20260509094559 70 256 0.9 9.6 0.00 0.01 0.00 84 1009.1
20260509093052 70 142 5.2 12.2 0.00 0.01 0.00 88 1007.3
20260509091554 70 159 5.2 12.2 0.00 0.01 0.00 88 1006.5
20260509084558 69 157 5.2 10.4 0.00 0.01 0.00 89 1007.8
20260509083051 68 142 4.3 9.6 0.00 0.01 0.00 90 1008.1
20260509081555 67 176 1.7 3.5 0.00 0.01 0.00 90 1009.0
20260509080101 68 135 2.6 12.2 0.00 0.01 0.00 91 1009.4
20260509074558 68 118 4.3 7.8 0.00 0.01 0.00 91 1009.6
20260509073058 68 133 0.0 2.6 0.00 0.01 0.00 90 1010.4
20260509071608 68 196 0.9 3.5 0.00 0.01 0.00 90 1011.7
20260509070058 69 290 1.7 4.3 0.00 0.01 0.00 91 1012.7
20260509064607 68 285 0.9 1.7 0.00 0.01 0.00 91 1012.6
20260509063109 68 300 0.9 6.1 0.00 0.01 0.00 92 1012.3
20260509061557 67 292 2.6 3.5 0.00 0.01 0.00 92 1012.3
20260509060106 67 285 2.6 4.3 0.00 0.01 0.00 92 1012.2
20260509054612 67 312 1.7 4.3 0.00 0.01 0.00 92 1011.5
20260509053104 67 306 0.9 1.7 0.00 0.01 0.00 91 1011.6
20260509051558 68 0 0.0 1.7 0.00 0.01 0.00 90 1010.9
20260509050102 68 178 0.9 2.6 0.00 0.01 0.00 90 1010.8
20260509044554 68 0 0.0 1.7 0.00 0.01 0.01 90 1011.1
20260509043100 69 0 0.0 1.7 0.00 0.01 0.01 88 1010.9
20260509041554 69 17 0.0 1.7 0.00 0.01 0.01 88 1011.0
20260509040057 70 102 1.7 3.5 0.00 0.01 0.01 87 1010.6
20260509034602 70 149 0.9 6.1 0.00 0.01 0.01 87 1010.3
20260509033056 70 106 0.9 7.0 0.00 0.01 0.01 87 1010.0
20260509031602 70 98 1.7 5.2 0.00 0.01 0.01 87 1009.6
20260509030056 70 182 1.7 6.1 0.00 0.01 0.01 88 1009.5
20260509024559 70 128 2.6 7.0 0.00 0.01 0.01 88 1009.0
20260509023058 70 96 0.9 3.5 0.00 0.01 0.01 88 1009.2
20260509021555 70 97 1.7 3.5 0.00 0.01 0.01 88 1009.2
20260509020058 70 117 0.0 1.7 0.00 0.01 0.01 86 1009.2
20260509014559 71 0 0.0 1.7 0.00 0.01 0.01 86 1009.3
20260509013114 71 0 0.0 0.9 0.00 0.01 0.01 85 1009.2
20260509011605 71 0 0.0 1.7 0.00 0.01 0.01 84 1009.1
20260509010057 71 94 0.0 1.7 0.00 0.01 0.01 83 1008.7
20260509004557 72 121 1.7 2.6 0.00 0.01 0.01 82 1008.6
20260509003102 72 103 0.9 0.9 0.00 0.01 0.01 81 1008.7
20260509001555 73 65 0.0 1.7 0.00 0.01 0.01 80 1008.8
20260509000100 73 0 0.0 1.7 0.00 0.01 0.01 79 1009.0
20260508234553 73 65 0.0 2.6 0.00 0.01 0.01 79 1009.1
20260508233058 73 58 0.9 3.5 0.00 0.01 0.01 79 1008.9
20260508231612 72 125 0.9 3.5 0.00 0.01 0.01 80 1009.0
20260508230103 72 113 2.6 6.1 0.00 0.01 0.01 79 1009.0
20260508224614 72 175 2.6 9.6 0.00 0.01 0.01 77 1009.0